Location: Mentone
(34.5413°N, 85.5351°W)
Time: 08:31:07
(UTC-05:00)

Vanguard 3 - All Passes

Search period start: 06 July 2015 00:00
Search period end: 16 July 2015 00:00
Orbit: 509 x 3270 km, 33.3° (Epoch: 05 July)

Date Brightness Start Highest point End Pass type
(mag) Time Alt. Az. Time Alt. Az. Time Alt. Az.
06 Jul - 00:37:24 10° W 00:45:13 44° SSW 00:58:25 10° SE visible
06 Jul - 02:51:37 10° WSW 02:59:57 20° SSW 03:10:07 10° S visible
06 Jul - 19:03:36 10° WSW 19:07:16 50° SSE 19:12:15 10° E daylight
06 Jul - 21:14:06 10° W 21:18:51 80° S 21:26:59 10° E visible
06 Jul - 23:24:52 10° W 23:31:22 55° SSW 23:42:58 10° SE visible
07 Jul - 01:37:10 10° W 01:45:13 28° SSW 01:56:52 10° SSE visible
07 Jul - 17:51:46 10° SW 17:54:55 27° SSE 17:58:25 10° E daylight
07 Jul - 20:02:01 10° W 20:06:02 77° S 20:12:09 10° E daylight
07 Jul - 22:12:39 10° W 22:18:00 66° S 22:27:28 10° ESE visible
08 Jul - 00:23:56 10° W 00:30:59 36° SSW 00:42:27 10° SE visible
08 Jul - 02:39:27 10° WSW 02:45:35 15° SSW 02:52:13 10° S visible
08 Jul - 16:40:29 10° S 16:42:29 14° SSE 16:44:29 10° ESE daylight
08 Jul - 18:49:51 10° WSW 18:53:28 57° SSE 18:58:05 10° E daylight
08 Jul - 21:00:33 10° W 21:04:59 76° S 21:12:18 10° E visible
08 Jul - 23:11:21 10° W 23:17:17 46° SSW 23:27:30 10° SE visible
09 Jul - 01:24:10 10° WSW 01:30:57 21° SSW 01:40:06 10° SSE night (unlit)
09 Jul - 17:37:39 10° SW 17:41:04 34° SSE 17:44:37 10° E daylight
09 Jul - 19:48:23 10° W 19:52:14 78° S 19:57:47 10° E daylight
09 Jul - 21:59:06 10° W 22:04:02 57° SSW 22:12:28 10° ESE visible
10 Jul - 00:10:39 10° W 00:16:51 28° SSW 00:26:22 10° SSE visible
10 Jul - 16:25:36 10° SSW 16:28:36 19° SSE 16:31:20 10° ESE daylight
10 Jul - 18:36:05 10° WSW 18:39:41 64° S 18:43:59 10° E daylight
10 Jul - 20:46:57 10° W 20:51:08 70° S 20:57:42 10° ESE visible
10 Jul - 22:57:55 10° W 23:03:15 36° SSW 23:11:59 10° SE visible
11 Jul - 01:11:46 10° WSW 01:16:48 15° SSW 01:22:46 10° S night (unlit)
11 Jul - 15:14:21 10° S 15:15:52 11° SSE 15:17:22 10° SE daylight
11 Jul - 17:23:33 10° SW 17:27:15 42° SSE 17:30:49 10° E daylight
11 Jul - 19:34:44 10° W 19:38:28 77° S 19:43:29 10° E daylight
11 Jul - 21:45:34 10° W 21:50:06 47° SSW 21:57:28 10° SE visible
11 Jul - 23:57:36 10° WSW 00:02:48 21° SSW 00:10:04 10° SSE visible
12 Jul - 16:10:54 10° SW 16:14:45 26° SSE 16:17:57 10° ESE daylight
12 Jul - 18:22:16 10° WSW 18:25:56 71° S 18:29:58 10° E daylight
12 Jul - 20:33:21 10° W 20:37:18 61° S 20:43:08 10° ESE visible
12 Jul - 22:44:35 10° WSW 22:49:17 28° SSW 22:56:24 10° SE visible
13 Jul - 14:58:23 10° SSW 15:02:00 17° SSE 15:04:56 10° ESE daylight
13 Jul - 17:09:25 10° WSW 17:13:27 51° SSE 17:17:02 10° E daylight
13 Jul - 19:21:02 10° W 19:24:41 73° S 19:29:16 10° E daylight
13 Jul - 21:32:04 10° W 21:36:12 37° SSW 21:42:28 10° SE visible
13 Jul - 23:45:04 10° SW 23:48:49 15° SSW 23:53:19 10° S visible
14 Jul - 13:46:40 10° S 13:48:52 12° SSE 13:50:58 10° SE daylight
14 Jul - 15:56:16 10° SW 16:00:55 35° SSE 16:04:26 10° E daylight
14 Jul - 18:08:22 10° W 18:12:10 75° S 18:16:00 10° E daylight
14 Jul - 20:19:44 10° W 20:23:28 50° SSW 20:28:37 10° ESE visible
14 Jul - 22:31:28 10° WSW 22:35:22 20° SSW 22:40:41 10° SSE visible
15 Jul - 14:42:59 10° SSW 14:48:07 25° SSE 14:51:49 10° ESE daylight
15 Jul - 16:55:14 10° WSW 16:59:39 61° S 17:03:16 10° E daylight
15 Jul - 19:07:16 10° W 19:10:54 67° S 19:15:07 10° ESE daylight
15 Jul - 21:18:39 10° WSW 21:22:19 28° SSW 21:27:26 10° SE visible
